STARLINK-5357, 57141

Orbit data source: Space-Track

STARLINK-5357, 57141 is a payload satellite owned by SpaceX/Seattle (US) in LEO that was launched on Fri, 23 Jun 2023 UTC via an FALCON 9 launch vehicle from the Air Force Eastern Test Range (AFETR). Payload-class satellites include a variety of spacecraft equipped with specific instruments for various scientific and technological missions. These include communications satellites like Starlink; space stations such as the ISS; scientific satellites like the Hubble; Earth observation satellites from companies like Planet Labs, Umbra, and HawkEye 360; GPS; miniature CubeSats for education and research; and military/defense satellites.

Loading next visibility...
Identifier
57141, 2023-090AS
Orbit
LEO
Country
Flag of USUS
Related business
Manufacturer
SpaceX/Seattle
Mission
Operational Commercial Communications
Bus & Motor
STARLINK, Unknown motor
Mass
305 kg wet, ~290 kg dry
Launch date (UTC)
2023-06-23 (3 years ago)
Launch vehicle
FALCON 9
Launch site
Air Force Eastern Test Range (AFETR)
Object type
Payload
Rocket body
Debris
Shape & HBR
Box + 1 Pan, 10.1 m
Radar Cross Section
11.087 m², Large (>1 m²)

Expand to show TLE details & history
Last TLE update: 2 days ago

TLE from 2 days ago
0 STARLINK-5357
1 57141U 23090AS  26171.06416714 -.00000065  00000-0  71704-5 0  9994
2 57141  43.0010  44.8947 0001718 257.6484 102.4175 15.27581069166015
Epoch: 2026-06-20T01:32Z
TLE epoch observation values (Epoch: 2026-06-20T01:32:24.040Z)
Latitude
-0.00006°
Longitude
113.51031°
Altitude
483.075 km
Speed
7.626 km/s
True Right ascension
02h 59m 34s
True Declination
0° 00' 00"
Sunlit
Object was in daylight at epoch
Visualization orbit readout
Latitude
Unknown
Longitude
Unknown
Altitude
Unknown
Speed
Unknown
Apparent Right ascension
Unknown
Apparent Declination
Unknown
Sunlit
N/A
Visualization observer readout
Local Sidereal Time
21:28:17
Azimuth
Unknown
Elevation
Unknown
Doppler factor
Unknown
Orbital elements
Apogee altitude
486.17 km
Perigee altitude
483.812 km
Semi-major axis
6,863.128 km
Eccentricity
0.00017
Inclination
43.001°
RAAN
44.8947°
Arg. of periapsis
257.6484°
True anomaly
102.43673°
Mean anomaly
102.4175°
Eccentric anomaly
102.42711°
Mean motion
3.81733 °/min
Orbital period
94.31 mins
BSTAR
0.0000071704
Loading maneuver chart data...
Computing Atmospheric mass density...
Loading historical data...
Loading historical data...
Loading historical data...
Loading historical data...
Loading historical data...
Loading historical data...
Loading historical data...

Documentation

Showing up to 5 results
|